Location: Crescent
(42.8242°N, 73.7329°W)
Time: 15:58:21
(UTC+00:00)

Explorer 11/Cluster Stage 4 - Pass Details

Date: 24 February 2026
Orbit: 463 x 1176 km, 28.8° (Epoch: 9 March)

Event Time Altitude Azimuth Distance (km) Brightness Sun altitude
Rises 13:56:05 0° 209° (SSW) 3,711 10.1 22.0°
Drops below altitude 10° 14:02:30 10° 165° (SSE) 2,513 10.2 22.9°
Maximum altitude 14:02:40 10° 163° (SSE) 2,505 10.2 22.9°
Sets 14:08:29 0° 115° (ESE) 3,167 11.0 23.7°
